Zurück zum Katalog

FENGYUN 1C DEB

AktivSSO
NORAD 37919·DEBRIS·🇨🇳 China

Gestartet May 10, 1999 von Taiyuan Satellite Launch Center

Loading…

Nächste Überflüge (nächste 24 Stunden)

TLE

AktuellSource: Space-Track

Epoche: Sep 14, 2026, 14:24 UTC

1 37919U 99025ENU 26257.60044061  .00000626  00000-0  27227-3 0  9994
2 37919  99.0828 210.6978 0047730 301.4128  58.2388 14.27316142688434

Verfolge FENGYUN 1C DEB in Echtzeit mit AllMySat

Download on the App Store